Location: Newark
(45.2500°N, 7.5833°E)
Time: 01:11:51
(UTC+00:00)

Vanguard 3 - Pass Details

Date: 26 January 2020
Orbit: 508 x 3263 km, 33.3° (Epoch: 26 February)

Event Time Altitude Azimuth Distance (km) Brightness Sun altitude
Rises 21:18:31 0° 274° (W) 7,124 12.5 -50.1°
Reaches altitude 10° 21:24:05 10° 268° (W) 5,894 11.9 -51.0°
Enters shadow 21:35:48 34° 232° (SW) 3,521 10.2 -52.7°
Maximum altitude 21:38:55 37° 210° (SSW) 3,160 - -53.1°
Drops below altitude 10° 21:48:34 10° 147° (SSE) 3,855 - -54.5°
Sets 21:51:24 0° 139° (SE) 4,505 - -54.9°
